Regional Weather Roundup
Issued by NWS

Home | Current Version | Previous Version | Text Only | Print | Product List | Glossary On
Versions: 1 2 3 4 5 6 7 8 9 10 11 12 13 14 15 16 17 18 19 20 21 22 23 24 25 26 27
000
ASUS45 KCYS 240510
RWRWY

WYOMING REGIONAL WEATHER ROUNDUP
NATIONAL WEATHER SERVICE CHEYENNE WY
1100 PM MDT MON APR 23 2018

NOTE:  "FAIR" INDICATES FEW OR NO CLOUDS BELOW 12,000 FEET
WITH NO SIGNIFICANT WEATHER AND/OR OBSTRUCTIONS TO VISIBILITY.

WYZ001-240600-
YELLOWSTONE NATIONAL PARK

CITY           SKY/WX    TMP DP  RH WIND       PRES   REMARKS
LK YELLOWSTONE   N/A     23  18  81 CALM      30.38S
W YELLOWSTONE  NOT AVBL

$$
WYZ002>013-054>058-071-098>099-240600-
NORTHERN WYOMING

CITY           SKY/WX    TMP DP  RH WIND       PRES   REMARKS
JACKSON        CLOUDY    36  27  69 NE8       30.31R WCI  30
CODY           FLURRIES  33  28  81 N10       30.46R WCI  25
GREYBULL       CLOUDY    37  30  75 NW21      30.40R WCI  26
WORLAND        MOCLDY    34  31  88 NW16      30.40R WCI  24
SHERIDAN       FLURRIES  34  33  96 NW15      30.46R WCI  24
BUFFALO        CLOUDY    33  29  85 N18G25    30.41R WCI  22
GILLETTE       CLOUDY    33  31  92 NW20      30.38R WCI  21
HULETT         CLOUDY    32  32 100 NW13G22   30.36R FOG     WCI  22
NEWCASTLE      CLOUDY    36  30  80 NW14      30.30R WCI  27

$$
WYZ014>020-022>026-101>103-240600-
CENTRAL WYOMING

CITY           SKY/WX    TMP DP  RH WIND       PRES   REMARKS
BIG PINEY      FAIR      31  24  75 N10       30.28R WCI  22
PINEDALE       FAIR      30  28  93 W7        30.27F WCI  23
DUBOIS         FLURRIES  30  28  93 SE8       30.33S WCI  23
LANDER         CLOUDY    34  26  72 VRB6      30.39R WCI  29
RIVERTON       CLOUDY    34  25  69 N21       30.38R WCI  22
CASPER         CLOUDY    33  27  78 N17       30.39R WCI  22
DOUGLAS        CLOUDY    34  29  82 NW15      30.37R WCI  24

$$
WYZ021-027>030-104>119-240600-
SOUTHERN WYOMING

CITY           SKY/WX    TMP DP  RH WIND       PRES   REMARKS
EVANSTON       FAIR      37  25  61 N12       30.27S WCI  29
KEMMERER       FAIR      34  23  64 NW7       30.28S WCI  28
FORT BRIDGER   FAIR      38  22  53 NW6       30.30S WCI  33
ROCK SPRINGS   FAIR      32  25  75 NE16G28   30.32R WCI  21
DIXON          FAIR      41  31  68 NE18      30.26R
RAWLINS        CLOUDY    32  27  81 E13       30.33R WCI  22
SARATOGA       MOCLDY    34  28  80 NW12      30.30R WCI  25
LARAMIE        CLOUDY    33  33 100 NE7       30.26R WCI  27
CHEYENNE       FAIR      33  30  88 MISG      30.25R
TORRINGTON     MOCLDY    37  32  82 N18G30    30.29R WCI  27
PINE BLUFFS    CLOUDY    36  32  87 N25G31    30.27R WCI  23

$$




USA.gov is the U.S. government's official web portal to all federal, state and local government web resources and services.